{"data":{"norad_id":68980,"intl_designator":"2026-100A","name":"PEARL-1B","alt_names":[],"object_type":"PAYLOAD","status":"ACTIVE","operator":null,"country":"ROC","launch_date":"2026-05-03","launch_site_code":"AFWTR","launch_vehicle":null,"mission":null,"orbit_class":"UNKNOWN","rcs_meters":null,"size_class":null,"mass_kg":null,"dimensions":null,"purposes":[],"wikipedia_slug":null,"has_3d_model":false,"image_url":null,"decayed_at":null,"tle_current":{"epoch":"2026-09-20T03:45:38.994048Z","epoch_age_seconds":49071,"freshness":"FRESH","line1":"1 68980U 26100A   26263.15670132  .00001166  00000+0  12382-3 0  9996","line2":"2 68980  97.7229 158.5422 0006844 180.2339 179.8877 14.90877750 20832","mean_motion":14.9087775,"eccentricity":0.0006844,"inclination_deg":97.7229,"raan_deg":158.5422,"arg_perigee_deg":180.2339,"mean_anomaly_deg":179.8877,"bstar":0.00012382,"rev_number":2083,"period_min":96.587396250296,"perigee_km":590.42475134332,"apogee_km":599.96985133499,"semimajor_km":6973.3343013392,"source":"CELESTRAK","updated_at":"2026-09-20T09:00:24.597107Z"}}}